Theta_e
318 317 317 318 319 319 319 320 319 318 319 319 319 318 317 315 313 313 313 312 313 314 315 315 315 316 316 314 314 315 316 321 323 324 328 331 332 334 333 335 337 338 339 339 342 345 344 346 345 346 348 350 350 351 352 351 354 361 369 371 356 354 358 365 374 364 362 369 363 362 364 366 365 361 358 356 356 357 358 357 355 356 354 353 350 347 347 348
320 317 317 319 319 319 320 319 319 318 318 319 318 318 318 316 313 312 313 313 313 314 314 316 316 316 315 315 313 315 319 321 325 328 330 331 332 333 333 332 336 338 338 339 342 344 347 347 345 346 347 351 351 349 353 351 354 364 371 367 356 358 356 357 369 364 362 368 363 362 363 363 364 360 358 360 358 357 361 359 356 358 356 352 351 348 348 348
320 318 318 319 319 319 319 319 318 318 318 319 319 318 318 317 314 312 313 313 313 313 314 315 316 316 316 315 314 317 320 325 332 335 333 330 333 334 332 332 334 336 337 340 342 342 347 348 343 345 348 352 351 350 354 353 356 360 359 363 357 358 358 355 363 364 363 364 363 363 360 361 360 356 357 360 358 357 361 360 358 360 357 356 355 350 349 350
319 319 318 319 320 320 319 319 318 318 318 319 319 318 318 317 315 312 313 313 313 314 314 314 315 316 316 314 315 319 324 331 338 336 331 331 334 333 333 333 332 336 337 338 342 343 344 343 344 345 347 353 352 351 355 354 356 351 351 363 356 354 362 359 360 364 361 360 363 362 360 360 357 355 355 357 360 359 357 357 359 359 356 356 356 353 351 352
320 320 319 319 319 319 319 318 317 317 318 318 318 318 318 318 315 313 312 313 313 314 313 314 315 316 316 314 315 320 329 336 336 336 335 329 330 331 334 334 332 336 337 339 342 342 343 343 344 345 349 356 353 354 358 353 351 346 347 356 353 355 362 358 358 362 359 360 362 361 361 358 354 355 353 354 361 360 356 357 359 356 354 354 354 353 353 352
321 320 320 318 318 317 317 317 317 317 318 318 318 318 318 318 316 313 313 313 313 314 313 314 314 316 315 314 319 323 330 336 330 334 336 329 329 330 333 334 333 335 337 341 340 341 343 343 345 349 354 355 354 361 361 348 345 350 348 347 350 353 357 356 357 360 360 361 363 360 359 357 358 356 354 357 359 357 358 361 359 355 353 352 351 352 352 354
322 321 320 318 316 315 315 316 317 317 318 318 318 318 318 318 316 314 313 313 313 313 313 313 314 316 315 316 322 323 326 331 326 327 332 330 328 329 334 335 333 334 336 338 338 343 345 344 349 353 354 353 351 358 353 343 343 353 352 347 351 351 355 356 357 361 362 362 362 358 359 360 361 357 358 365 360 356 359 359 356 353 351 349 351 352 352 353
322 322 320 317 315 313 313 314 315 317 317 318 318 318 318 318 317 314 313 313 313 313 313 313 314 314 314 316 320 320 321 324 323 326 329 330 329 329 335 336 334 333 333 333 336 345 347 350 355 348 346 345 346 348 344 343 346 350 352 348 351 353 354 356 356 361 362 363 362 359 361 361 359 358 360 365 360 357 357 356 356 353 351 353 354 355 354 353
322 322 320 316 313 312 312 313 315 316 316 316 316 317 317 318 317 314 312 313 313 313 313 313 314 314 315 317 318 318 320 323 326 329 330 330 329 329 333 335 334 333 333 332 334 341 342 348 351 340 336 337 340 344 343 348 349 347 350 349 353 354 354 355 355 358 358 359 361 362 361 358 356 354 355 362 360 355 355 356 357 355 357 357 356 354 353 354
321 321 319 316 313 313 312 312 313 315 315 316 316 317 317 317 317 314 313 313 313 313 312 313 314 313 314 318 318 318 321 326 332 332 331 331 329 329 332 332 333 331 334 335 335 340 341 340 341 333 334 336 337 342 344 347 346 345 348 350 352 354 353 354 354 355 354 356 360 364 361 358 355 352 352 360 359 354 357 358 356 358 360 359 358 355 351 351
319 319 320 318 314 314 313 312 313 313 314 315 316 316 317 317 315 314 313 314 313 313 312 313 313 313 315 317 318 319 321 328 336 334 331 330 329 331 330 332 334 331 335 341 339 342 340 336 337 336 338 334 334 339 341 341 342 345 350 351 351 353 352 351 354 354 354 355 357 361 361 355 356 357 358 360 357 355 358 360 356 359 361 360 360 357 352 351
318 319 319 318 316 315 314 313 313 312 313 314 315 316 316 317 315 314 314 314 313 312 312 312 312 313 316 318 318 319 320 328 336 331 330 327 326 329 330 332 335 333 336 342 341 339 339 338 336 339 340 334 334 339 340 340 342 345 348 352 351 352 353 350 352 353 354 355 356 358 356 355 362 365 360 358 357 355 357 360 358 358 359 359 358 356 355 351
317 318 319 319 318 316 314 313 312 312 313 313 315 315 315 315 314 314 314 314 313 312 312 312 314 316 317 318 318 319 320 324 326 325 326 327 325 326 328 332 337 338 338 340 339 339 341 340 337 340 339 335 336 338 341 340 342 345 345 350 352 350 354 352 350 354 353 355 358 351 343 354 374 370 360 359 357 356 359 360 358 359 359 358 356 355 354 350
317 317 318 319 318 317 314 312 312 312 312 313 313 314 315 315 314 313 314 314 313 312 311 311 317 319 321 323 320 319 320 321 321 321 323 325 324 325 327 329 333 339 341 340 341 340 341 340 335 337 335 334 339 340 343 344 346 347 342 348 354 350 356 355 350 355 354 353 356 347 338 354 371 363 359 361 357 357 360 359 358 359 359 358 355 355 355 350
317 317 318 318 318 317 315 312 311 311 311 312 313 314 314 313 313 313 314 314 314 312 312 314 319 323 327 327 320 320 323 323 322 322 322 323 322 324 326 327 330 333 333 334 337 338 341 339 335 338 335 332 342 347 348 350 353 352 342 343 349 348 355 354 349 355 356 353 354 346 345 358 361 356 360 362 359 359 360 359 358 359 359 357 356 355 356 353
317 317 317 318 319 318 315 312 311 311 311 312 314 314 314 317 318 316 314 314 313 312 312 317 320 321 326 325 321 322 322 322 324 322 323 323 323 324 324 325 328 326 324 323 329 335 339 338 335 338 336 333 342 349 351 347 347 354 346 340 343 345 350 350 348 353 354 356 355 347 349 359 359 355 360 360 359 359 360 360 359 359 359 356 355 355 355 355
318 318 317 317 318 318 317 313 312 311 311 314 316 318 320 323 323 317 315 314 313 313 315 320 321 319 320 320 322 322 320 321 322 322 323 323 324 324 324 327 325 322 322 321 327 333 335 335 334 335 337 335 337 346 344 331 331 343 343 338 343 347 346 348 353 352 352 358 359 352 352 361 360 356 359 360 357 359 359 358 358 357 357 355 355 354 354 357
319 318 317 317 318 319 318 314 312 311 312 317 319 323 326 324 320 316 316 316 315 317 318 320 319 316 317 319 320 320 320 320 321 322 322 322 323 324 328 330 323 321 326 324 327 331 331 335 336 337 339 333 333 341 336 327 330 336 339 336 339 343 344 346 351 351 353 358 359 356 355 358 358 355 359 359 357 361 359 355 356 356 355 354 354 355 356 356
320 319 317 317 318 318 318 315 312 312 315 319 322 326 327 323 320 318 317 319 321 323 324 322 320 317 317 318 319 320 320 321 323 323 321 322 322 326 328 327 323 322 325 323 325 330 333 337 335 333 334 333 335 339 336 337 340 342 344 341 335 337 340 346 351 349 351 356 358 358 355 356 356 356 360 359 357 361 358 354 356 355 354 354 355 356 356 357
320 319 318 317 317 318 319 316 313 313 317 321 323 325 327 326 329 329 322 322 323 324 326 325 323 321 320 320 320 322 323 323 322 321 321 321 322 327 325 320 321 322 322 323 323 327 332 334 332 331 335 337 335 338 338 338 340 341 341 339 336 334 335 344 352 349 349 353 354 356 354 354 358 356 358 359 358 361 358 355 356 355 354 354 356 357 357 358
321 320 318 317 317 317 319 317 314 315 318 322 322 323 325 325 328 329 325 324 323 320 323 325 321 320 321 321 321 322 325 324 324 323 322 320 322 325 323 320 321 321 323 324 322 325 326 326 330 334 337 336 333 337 337 333 334 333 331 330 329 329 333 345 353 349 348 351 352 357 355 354 357 356 357 358 358 360 358 355 355 354 354 355 356 357 358 359
321 320 319 317 317 317 318 317 315 316 318 321 322 321 321 322 323 324 321 324 324 319 322 323 319 321 321 320 321 321 323 326 328 329 323 319 321 322 321 322 321 322 323 323 323 324 324 322 327 333 335 333 332 335 333 333 334 330 329 326 321 327 336 341 350 351 346 347 355 357 351 355 360 355 355 358 358 358 356 354 353 354 354 354 356 357 358 360
321 321 320 318 317 317 318 318 317 317 317 320 321 320 320 321 323 322 319 323 324 321 323 324 321 322 322 321 321 323 325 326 328 330 324 319 321 322 322 321 321 322 323 323 323 320 319 324 328 331 333 332 332 333 332 332 330 328 330 323 319 331 334 332 343 353 349 349 357 357 354 363 366 355 356 357 355 356 353 352 351 352 355 354 355 356 357 358
321 321 320 319 317 317 318 319 317 316 316 318 321 320 318 320 323 322 320 325 328 325 323 322 322 323 324 322 320 323 327 324 326 328 322 319 322 320 321 322 322 321 323 326 325 321 321 325 330 329 330 332 330 331 332 329 327 329 330 324 321 330 336 339 346 349 349 350 353 354 351 360 366 357 357 357 352 353 353 354 355 353 354 355 357 357 357 357
321 321 321 320 318 317 318 319 318 315 316 318 321 319 316 320 323 321 324 329 328 329 324 318 321 324 323 322 321 324 326 323 325 324 319 320 321 320 321 322 322 321 324 325 327 326 324 325 328 329 329 331 330 330 332 328 324 325 330 332 326 331 345 350 347 344 343 340 347 349 338 347 367 361 354 354 353 352 353 354 355 355 355 355 359 359 357 357
319 321 321 320 319 317 319 323 319 315 317 320 319 317 316 321 323 321 328 332 327 330 326 316 320 323 320 322 322 323 322 322 324 319 318 320 320 321 322 322 322 323 325 325 327 328 327 326 328 330 330 329 329 328 331 329 322 320 328 334 334 343 351 347 344 342 338 338 347 347 336 342 360 358 350 352 353 354 354 354 353 354 357 356 358 359 357 356
318 320 320 320 319 317 321 323 318 316 319 319 317 316 316 321 321 319 327 329 323 325 323 317 318 321 321 321 322 322 320 321 322 318 320 321 320 320 321 323 321 321 325 324 320 322 327 329 327 329 329 328 329 326 329 333 323 321 331 340 349 359 353 346 344 341 342 343 343 346 347 344 348 355 354 351 353 357 357 355 355 356 356 356 356 358 357 355
317 319 320 321 319 317 319 320 318 318 318 317 315 314 318 320 322 324 325 321 320 320 320 319 319 319 320 318 319 322 320 320 321 319 319 320 321 321 320 324 323 321 324 321 316 321 328 326 326 329 328 326 327 327 332 332 325 329 333 335 343 353 352 348 344 340 344 340 333 340 343 338 345 358 359 355 354 356 357 355 355 356 355 356 358 357 356 354
316 319 319 320 319 318 318 318 318 318 317 317 313 314 319 318 323 330 325 319 321 321 319 319 319 319 320 318 319 322 321 321 322 320 320 319 320 320 319 323 323 320 321 320 320 324 324 325 329 329 326 328 331 332 334 331 328 332 331 330 337 346 352 350 344 341 339 333 331 337 336 331 343 357 356 355 354 351 354 355 353 355 355 357 358 356 355 354
316 318 320 320 319 317 317 318 318 318 318 316 313 316 319 325 334 329 317 316 321 321 319 318 320 319 320 321 320 321 320 321 323 321 321 320 320 321 319 320 322 322 324 325 324 323 323 327 334 330 327 332 331 331 332 331 330 328 328 333 334 340 348 352 356 346 332 332 333 334 337 331 335 351 353 351 353 355 361 360 355 354 356 358 358 354 353 354
316 318 319 320 318 317 319 322 320 318 319 316 315 319 320 330 340 326 315 317 320 321 321 321 321 319 319 323 322 321 320 320 322 322 321 321 321 322 320 320 321 323 327 327 322 324 324 323 328 331 332 331 326 328 328 328 329 329 335 334 324 330 339 338 346 341 328 332 333 331 339 331 328 347 359 353 354 357 362 363 358 356 357 357 355 351 351 354
316 317 319 320 319 318 320 323 321 319 320 316 317 329 330 324 323 322 322 323 318 318 323 323 322 321 319 320 321 321 320 320 321 321 322 322 321 322 321 321 323 317 316 321 319 321 325 322 324 327 332 332 324 326 326 326 331 329 336 332 319 323 327 323 331 335 329 330 329 331 336 332 332 347 363 365 362 359 359 359 355 353 355 356 353 350 351 352
315 317 319 319 319 319 319 320 320 320 320 317 320 339 342 322 316 321 326 323 318 319 325 324 322 322 319 318 319 320 319 321 322 321 321 323 321 322 321 322 325 317 315 320 316 314 319 325 326 322 327 330 324 324 320 322 331 326 326 324 318 320 319 320 328 329 324 325 328 335 336 335 337 344 360 366 362 359 359 356 354 355 355 354 350 349 350 352
316 318 319 319 319 318 319 319 320 321 318 317 326 334 327 318 322 329 329 328 326 324 325 323 321 320 318 318 319 319 318 319 320 320 321 321 320 322 322 320 322 322 322 320 316 314 314 318 327 324 323 326 325 326 325 326 331 329 332 328 321 323 319 318 326 322 318 325 330 331 333 336 337 342 357 363 357 356 356 355 361 361 356 351 348 349 351 351
316 318 319 319 318 319 320 319 320 320 317 322 334 330 320 319 325 328 327 329 328 324 321 320 322 321 318 319 320 319 318 317 320 321 320 321 320 324 327 322 321 327 324 317 317 319 312 314 328 328 322 326 326 327 331 331 325 326 333 325 317 325 324 318 322 324 322 328 335 334 338 346 349 351 360 360 357 359 356 357 363 358 352 349 348 350 350 350
317 319 319 319 320 320 320 319 320 318 319 327 328 321 324 327 323 324 327 326 321 320 321 320 322 320 316 319 321 319 318 317 319 320 318 320 321 323 327 324 322 323 321 319 320 319 312 315 330 327 323 327 328 329 331 327 324 324 323 320 320 328 331 322 318 325 324 320 330 341 351 360 354 351 360 361 358 358 356 357 358 353 351 350 350 350 349 348
319 320 320 320 320 320 319 320 318 315 321 327 321 321 331 329 322 327 330 323 318 320 320 318 320 318 314 316 322 322 320 318 317 317 317 318 318 321 324 324 321 322 323 321 321 322 316 315 327 328 322 325 326 328 331 327 328 325 317 321 325 324 331 327 318 323 323 318 331 345 356 360 347 344 359 365 361 358 356 356 355 353 351 350 350 348 347 348
319 319 322 322 321 321 322 320 315 318 325 326 330 337 336 325 322 325 325 320 319 321 321 318 319 319 315 315 320 322 318 315 316 318 318 316 316 321 323 323 321 321 323 321 319 324 319 313 324 330 321 324 326 322 322 325 327 326 322 326 325 318 321 321 315 318 317 322 342 350 353 354 348 353 368 373 367 362 357 355 355 354 352 352 351 349 347 348
319 323 327 323 321 322 322 318 316 323 323 323 335 340 328 323 326 325 323 321 319 320 322 322 319 318 320 320 321 324 319 316 318 317 316 315 316 320 321 322 322 320 321 321 322 326 323 314 318 327 322 322 326 322 319 321 323 323 326 325 324 323 322 318 318 317 315 325 342 346 347 354 357 366 381 381 372 362 356 356 356 353 352 352 351 349 348 349
320 327 327 322 322 322 319 318 322 326 320 320 332 333 321 322 326 324 324 322 319 322 322 323 319 317 322 323 321 322 321 319 320 317 315 317 316 320 322 321 322 322 320 320 323 325 324 316 314 327 328 318 319 322 323 325 322 320 322 320 320 322 320 320 319 316 322 338 346 341 340 353 365 369 376 376 367 358 356 356 354 352 352 351 349 349 349 348
321 326 327 323 321 319 319 321 325 329 329 325 326 327 325 325 324 324 326 322 321 323 320 321 321 319 321 320 318 322 325 323 320 318 318 318 315 318 321 322 323 322 320 320 322 322 321 319 316 320 318 314 322 330 329 329 325 324 323 321 320 320 318 317 317 320 334 347 349 343 339 354 370 364 363 367 361 357 357 354 353 353 351 350 350 349 347 347
321 321 324 323 320 318 319 325 327 328 334 330 324 323 326 327 326 324 323 321 320 320 320 321 321 321 321 320 321 324 326 324 321 318 318 318 318 319 321 323 321 321 324 322 323 329 332 326 316 315 319 319 323 326 323 322 325 324 322 325 327 323 319 315 315 325 339 343 347 346 341 356 369 360 359 362 359 356 354 352 353 353 351 351 350 347 346 346
329 325 323 321 320 319 318 323 325 327 333 331 324 321 322 323 324 322 320 320 320 319 319 320 320 319 319 320 323 324 323 323 323 322 322 322 322 322 323 322 320 323 325 319 322 335 337 324 314 320 338 341 331 333 328 324 331 330 327 331 328 322 324 323 326 340 346 344 349 344 340 354 365 357 356 358 357 356 353 352 353 351 352 351 347 347 346 344
334 331 328 322 320 320 320 323 324 327 336 333 323 320 321 320 320 320 321 321 323 321 318 320 321 318 318 320 322 322 323 321 322 325 327 324 325 330 328 325 322 320 320 323 328 329 325 325 318 316 327 331 329 333 328 326 337 336 339 343 335 336 342 334 337 351 347 342 346 341 342 357 359 353 354 354 354 355 352 350 351 351 352 350 346 347 344 342
329 326 328 326 321 320 322 325 323 326 332 329 324 324 324 322 321 320 320 323 325 322 320 322 322 318 321 320 319 323 325 322 321 326 328 327 333 336 333 330 324 316 326 345 344 325 322 330 326 316 315 317 320 324 320 323 334 335 341 348 341 345 347 335 335 339 334 336 343 341 344 356 358 354 355 354 353 354 352 350 350 350 350 348 346 345 342 343
325 323 327 326 322 321 323 325 322 321 326 326 327 327 323 322 323 321 320 321 321 321 321 323 322 320 320 319 321 327 327 323 324 327 330 334 337 337 333 334 327 324 344 360 348 335 333 333 335 335 327 323 333 342 335 331 333 330 336 345 344 346 343 336 334 329 331 340 345 350 354 357 360 361 357 354 354 354 353 351 350 351 349 348 346 343 342 343
323 326 331 324 322 325 325 325 323 323 327 326 326 326 324 324 324 320 320 321 320 321 322 321 320 320 320 320 323 325 327 333 334 331 332 336 340 339 335 332 332 342 356 351 340 342 334 321 330 345 337 331 340 343 341 343 338 334 338 342 346 351 346 337 330 329 337 336 335 355 367 357 358 363 358 355 354 353 353 350 349 350 349 347 346 344 344 344
320 324 327 324 330 332 326 326 326 323 323 324 325 327 325 324 325 322 322 322 320 319 320 320 320 319 320 321 320 322 331 338 337 337 339 337 338 342 338 330 331 343 345 336 337 349 336 318 324 337 342 345 343 336 342 353 350 349 355 353 354 363 358 344 338 344 351 338 331 352 365 358 360 362 356 353 351 350 350 349 347 348 348 346 346 346 345 344
323 327 328 328 338 339 332 333 332 328 328 327 330 331 324 323 327 323 321 321 321 322 320 321 324 323 322 325 322 327 337 334 329 337 344 339 336 338 337 334 334 337 337 333 335 342 336 327 330 341 346 348 349 348 351 356 358 360 363 361 363 367 364 357 356 363 367 355 348 354 361 362 359 356 354 352 347 346 346 346 347 349 348 347 347 347 346 343
325 330 334 337 344 344 342 341 339 341 342 334 333 333 324 323 327 323 320 320 321 325 321 320 326 325 321 327 326 327 339 341 334 335 339 337 336 337 337 335 332 334 339 336 331 333 332 326 339 361 353 341 347 355 352 357 364 362 359 361 365 365 363 367 369 368 369 368 361 359 363 364 356 351 353 350 345 346 346 347 349 348 347 346 346 345 344 342
321 324 328 339 352 352 348 345 340 341 339 332 334 336 325 322 326 325 324 323 321 325 324 322 325 325 325 332 332 330 341 347 341 339 340 337 333 333 336 334 331 333 341 338 331 336 337 329 341 362 348 335 342 348 347 352 354 349 349 353 357 359 357 362 366 361 363 370 362 354 357 362 356 350 350 348 347 348 348 349 349 348 346 345 343 343 342 340
322 325 327 335 351 352 346 344 341 339 336 332 336 336 328 325 328 329 331 331 325 323 325 325 325 331 338 340 340 342 344 344 342 339 336 333 330 331 332 333 332 334 340 340 332 336 343 336 337 349 341 331 338 345 348 349 339 335 342 344 348 358 358 356 362 363 364 368 364 358 362 362 355 351 351 351 349 348 349 350 349 347 346 344 342 341 339 339
Wind_Speed
9 10 10 12 13 13 14 14 14 15 16 16 16 16 16 15 13 13 13 13 14 15 16 17 17 19 19 20 22 22 22 19 10 4 2 2 5 9 10 13 19 21 20 22 23 19 11 8 8 9 8 3 1 1 3 2 1 2 3 3 2 0 0 2 5 3 2 3 3 2 2 5 2 1 1 3 7 5 5 5 4 6 6 6 7 11 11 9
10 10 10 12 12 13 13 14 14 15 15 16 16 16 16 15 14 12 13 13 14 15 15 16 17 18 19 20 21 21 21 17 8 3 3 2 6 10 12 16 19 22 23 24 25 20 10 6 8 7 4 1 1 1 3 2 1 2 2 3 0 3 0 1 5 4 2 4 4 2 3 4 4 2 1 3 3 4 7 4 3 7 6 6 7 9 10 9
11 11 11 12 13 13 13 13 14 15 15 16 16 16 16 16 14 13 12 13 14 15 15 16 16 18 18 19 20 19 18 11 4 1 2 3 7 9 14 17 16 21 18 16 24 20 10 11 14 9 3 1 0 2 2 1 2 2 3 3 2 4 2 3 4 5 4 6 7 4 2 3 3 1 2 4 5 4 7 4 4 7 6 5 4 7 9 8
13 13 12 13 14 13 13 14 14 14 15 16 16 16 16 16 15 13 12 12 13 14 15 16 16 17 18 19 18 16 13 6 1 3 4 5 9 10 15 15 15 21 13 10 20 14 7 14 14 6 3 1 2 2 2 2 3 1 3 3 4 4 3 2 3 6 6 7 7 4 3 2 2 0 3 6 6 2 5 5 4 8 10 8 6 6 8 7
15 14 14 14 14 14 14 14 14 14 15 15 15 16 16 16 15 13 12 12 13 14 15 16 16 16 17 18 15 12 8 4 1 4 6 5 9 10 14 14 16 21 12 12 17 10 10 14 9 2 2 1 2 1 2 5 4 1 0 3 5 5 4 2 4 7 7 7 6 5 4 1 0 2 3 4 4 3 5 4 4 8 9 9 8 7 8 7
14 14 14 14 15 15 15 15 15 15 15 16 15 15 15 16 15 14 12 12 13 13 14 15 16 16 17 16 12 8 4 1 1 4 4 4 7 10 14 14 19 19 11 14 15 10 10 9 5 2 1 1 3 3 3 5 4 2 3 2 2 5 7 5 5 7 7 7 5 5 3 2 4 2 1 1 1 3 1 4 5 6 7 9 8 7 7 7
14 14 15 14 15 15 15 15 15 15 15 16 15 15 15 15 15 14 12 12 12 13 13 14 15 16 16 13 8 5 3 4 3 3 2 2 6 10 14 16 20 19 13 14 11 6 6 6 4 3 3 2 4 5 3 4 5 4 1 3 1 4 8 7 6 7 7 8 5 4 4 4 4 2 0 1 2 3 2 5 6 6 7 8 7 6 6 6
15 16 15 15 15 15 15 15 16 16 16 16 16 15 15 15 15 14 12 11 12 12 12 13 13 15 16 10 3 4 2 6 4 1 3 3 7 11 16 18 20 19 16 14 10 7 6 7 6 3 3 3 4 5 3 5 4 4 2 2 2 4 5 6 6 7 7 7 5 6 5 3 2 2 1 2 3 3 3 6 6 6 6 6 5 5 5 5
17 16 16 16 16 16 15 16 16 16 16 16 16 15 15 14 14 14 12 11 11 11 11 12 12 13 14 8 4 2 5 5 5 5 2 4 8 12 16 17 20 22 17 15 15 11 6 6 7 5 4 3 5 6 4 5 0 3 5 1 3 4 4 6 4 5 5 4 6 7 5 2 2 0 0 1 1 2 4 6 5 5 5 4 4 4 4 4
18 17 18 17 17 17 17 16 16 16 17 17 16 16 14 13 13 13 12 10 10 10 10 10 10 11 10 5 5 1 5 3 5 5 2 2 6 12 15 13 19 22 15 12 16 12 7 7 7 4 3 1 3 3 4 6 3 6 9 5 6 5 4 5 4 3 2 2 6 7 4 2 1 2 1 2 4 3 4 5 3 4 4 3 3 3 3 3
19 19 19 19 18 18 18 17 17 17 17 17 17 16 14 13 12 13 11 10 9 8 9 9 9 9 6 4 5 4 4 2 2 3 4 4 3 8 12 12 17 21 15 9 11 13 9 6 4 1 2 1 2 3 4 5 7 11 13 9 6 6 4 3 3 2 1 2 3 7 6 0 3 2 3 3 5 4 4 4 2 3 2 1 2 1 1 1
19 20 20 20 19 19 19 18 18 17 17 17 17 16 15 14 12 12 11 9 8 8 8 7 8 7 4 3 3 8 5 2 2 3 6 8 8 8 7 9 12 14 13 5 5 10 6 0 2 3 0 1 2 2 3 6 10 11 11 8 4 5 3 1 1 2 0 1 4 6 6 2 3 3 4 3 6 4 4 4 3 3 2 1 1 0 1 1
20 21 20 20 20 20 20 19 18 18 18 17 17 16 15 15 13 12 10 7 8 8 6 5 6 5 3 1 6 8 8 8 9 10 11 12 13 12 10 11 10 10 11 7 5 7 4 4 2 1 1 4 2 2 5 7 8 9 8 6 4 4 2 5 3 2 2 1 6 3 3 4 6 7 3 5 7 4 3 4 4 3 3 2 2 1 1 2
21 21 22 21 21 21 21 20 19 19 18 18 17 17 16 15 13 11 9 8 7 6 5 4 4 2 2 4 8 7 11 12 14 16 14 15 15 14 13 12 10 9 11 12 9 7 6 3 1 1 0 4 3 3 7 5 4 7 7 3 3 2 3 5 4 4 2 2 5 3 2 5 6 6 4 6 6 5 4 5 3 4 3 3 2 2 2 2
21 22 23 22 22 22 21 21 21 20 20 19 18 18 17 15 13 11 9 8 6 4 3 2 2 2 2 7 9 8 10 10 13 16 15 16 13 11 13 12 9 7 6 9 10 7 5 3 1 2 1 2 6 6 5 3 3 4 5 1 2 3 3 3 4 7 4 2 4 3 1 4 6 6 6 7 6 5 4 5 3 3 2 2 2 1 1 1
20 22 23 23 23 23 22 22 21 21 20 19 19 17 14 12 10 8 7 7 4 1 0 2 2 3 2 4 5 4 6 5 8 10 10 14 14 12 14 14 12 9 6 4 6 6 5 2 1 2 3 3 6 6 5 4 4 3 3 2 4 3 2 1 4 8 5 3 4 2 1 3 5 6 5 8 7 5 4 5 4 4 3 2 1 1 0 1
21 22 23 23 24 23 23 22 22 22 20 20 19 14 9 7 4 2 5 3 2 2 2 1 2 2 2 5 3 3 4 4 7 9 8 10 14 15 12 8 7 10 11 4 4 4 2 2 1 0 2 4 4 5 6 3 3 3 1 2 4 4 4 2 2 7 6 5 6 5 2 5 5 4 6 8 8 6 5 6 5 4 3 2 2 1 0 1
21 22 23 23 24 24 24 22 23 22 19 20 17 8 7 6 6 5 7 6 3 2 2 2 2 1 4 4 3 4 6 9 12 13 10 9 10 13 9 2 4 9 11 6 2 2 2 2 2 2 3 3 3 6 5 3 5 5 5 4 4 4 5 5 4 7 10 7 7 7 5 9 7 3 6 6 8 7 7 6 4 4 4 3 3 2 2 2
22 22 22 24 24 24 24 23 22 19 17 19 11 6 8 8 7 7 6 5 2 1 1 2 2 2 3 3 4 7 10 12 14 11 7 6 6 7 4 0 3 5 4 4 3 2 2 2 3 3 1 2 5 6 5 7 8 8 7 5 4 4 5 7 4 8 14 9 7 10 8 9 7 5 7 6 7 7 6 5 4 4 4 4 3 3 3 2
22 22 23 24 24 25 24 23 21 15 16 19 9 5 5 5 4 3 2 2 3 5 5 5 6 5 5 3 2 6 10 9 6 5 3 3 5 6 2 2 4 4 1 2 4 1 3 1 2 5 6 6 7 8 7 7 7 6 4 4 6 6 5 5 4 7 13 9 7 10 7 7 7 7 8 7 7 7 7 6 6 6 5 5 5 4 4 3
22 23 23 23 25 25 24 24 18 11 14 17 11 5 3 3 2 3 5 5 7 9 9 9 9 8 7 4 2 5 5 4 4 5 4 3 7 7 1 2 4 1 3 3 2 2 3 1 5 7 8 8 9 8 6 5 5 4 4 5 6 6 6 4 6 9 12 7 5 6 6 8 7 4 5 7 9 10 10 10 9 8 6 5 6 5 5 4
22 23 24 24 25 24 25 23 13 8 13 13 10 6 4 2 2 5 2 5 8 8 11 10 7 8 9 7 7 1 3 2 7 9 6 4 4 5 2 3 5 4 3 1 2 4 3 6 9 8 6 6 6 6 6 5 5 3 3 3 4 4 3 2 1 8 11 6 4 5 7 8 6 3 4 7 10 10 10 11 9 8 7 6 6 6 5 5
22 24 24 24 25 24 26 20 8 8 14 10 6 6 2 7 6 3 4 2 7 5 6 7 5 6 6 6 7 5 4 3 4 8 5 8 3 4 5 4 5 4 1 2 3 1 2 6 5 5 7 7 3 3 5 3 1 2 2 2 5 3 3 1 2 5 6 3 3 6 4 4 5 4 4 7 8 5 7 9 7 7 7 6 4 5 6 7
22 23 24 25 24 25 25 14 4 10 16 9 3 4 8 14 8 3 4 1 5 5 4 7 5 5 5 4 7 10 4 4 5 5 5 10 4 2 5 5 5 3 3 4 7 5 7 6 0 3 4 7 3 1 2 2 3 2 4 4 6 4 3 3 3 6 3 4 3 7 3 5 4 5 6 5 5 5 5 6 6 7 7 3 4 5 6 6
22 23 24 26 24 26 22 6 4 15 17 6 2 6 14 16 10 3 4 2 3 6 4 4 2 4 7 4 7 10 3 3 7 6 4 8 7 4 2 3 4 3 6 4 6 4 9 7 1 2 2 4 3 3 1 3 2 5 4 8 9 4 5 9 9 8 4 2 3 6 3 5 4 5 9 4 5 7 5 6 8 7 6 5 4 5 6 6
23 23 24 25 25 27 17 1 6 19 13 1 2 12 15 15 11 3 4 5 2 6 3 1 1 4 6 4 5 6 3 3 7 7 5 6 7 5 2 1 1 3 5 4 3 3 5 3 3 2 2 1 2 3 3 5 2 3 5 6 4 3 10 13 12 7 4 3 6 5 4 4 4 6 10 6 4 7 5 6 8 7 7 6 5 5 6 7
23 23 24 25 26 26 11 2 12 16 5 1 7 14 14 14 9 3 2 5 2 3 0 1 1 4 5 4 5 6 3 5 3 4 5 7 4 3 2 3 0 3 4 3 1 3 3 3 2 2 1 1 3 3 4 6 7 3 5 5 6 8 11 14 13 7 3 3 2 3 3 1 4 6 7 5 4 6 6 7 7 7 8 7 6 5 6 8
23 24 24 23 25 23 9 7 15 9 2 5 12 14 14 13 5 3 3 3 2 1 2 1 1 3 1 1 4 4 3 3 1 1 2 6 5 3 1 6 6 4 2 5 4 5 2 1 3 4 2 2 4 4 6 6 4 6 5 4 3 6 8 10 9 3 1 4 1 4 2 2 4 6 2 3 3 8 9 9 8 9 10 7 6 6 7 7
23 24 24 24 25 19 10 12 13 5 4 9 14 15 13 9 3 4 4 1 2 1 1 1 1 1 2 2 3 3 2 1 1 3 2 4 2 3 3 6 6 4 0 4 5 6 3 4 5 4 3 4 6 6 8 7 3 5 2 5 4 5 5 4 4 3 3 2 3 7 6 3 4 6 1 3 3 10 9 7 8 9 8 7 7 7 7 7
23 24 24 25 23 16 13 16 10 4 7 12 15 15 9 4 4 4 1 1 1 1 0 0 0 0 3 5 2 4 3 3 2 2 3 2 2 4 3 3 6 5 1 3 2 6 4 2 3 4 4 6 6 5 6 7 6 2 5 6 7 7 5 4 3 4 4 2 4 6 8 4 2 5 4 4 3 4 3 3 6 8 7 8 8 8 9 8
24 24 25 25 21 15 12 9 6 7 11 13 15 11 4 3 4 5 1 2 1 2 2 2 1 2 4 5 2 2 1 3 3 2 1 1 4 5 2 1 3 3 4 5 3 5 7 5 1 3 5 5 3 3 2 2 1 2 4 4 4 4 4 4 4 3 2 5 5 3 6 5 2 6 4 4 2 2 5 6 9 10 9 9 8 8 9 8
24 24 25 24 21 16 11 8 9 12 12 12 11 5 4 2 1 2 3 4 1 1 2 1 2 2 1 2 2 3 2 2 2 1 3 2 3 2 2 4 3 2 3 3 2 5 5 5 4 4 4 4 5 2 2 4 4 4 3 4 3 2 2 2 2 0 2 6 4 1 6 4 5 7 3 3 5 2 3 5 9 12 11 10 9 9 8 8
24 25 26 22 19 19 16 14 13 11 10 9 5 4 6 3 1 4 3 3 1 2 2 1 3 3 2 2 2 2 2 2 3 1 2 2 2 3 4 4 6 4 2 3 1 2 4 6 5 3 4 4 7 4 2 3 0 5 4 3 3 2 2 1 3 1 2 5 4 1 5 4 5 4 2 3 6 6 4 3 4 8 9 9 8 8 8 8
25 25 25 22 20 20 18 15 13 9 8 5 3 5 4 2 3 3 2 3 2 3 3 2 5 3 3 3 3 3 2 2 3 3 1 2 2 2 4 3 4 5 2 2 2 2 1 5 4 4 3 3 7 7 6 5 2 3 4 5 4 4 4 3 4 3 3 3 2 2 3 4 3 3 3 3 5 5 4 2 3 6 7 7 7 9 9 8
25 24 24 21 19 15 11 10 10 6 3 2 6 5 3 3 3 1 1 3 2 4 7 4 2 3 3 1 3 3 4 2 1 3 2 2 3 4 3 4 4 4 4 3 2 2 3 5 8 5 2 5 7 5 6 6 1 3 3 5 2 4 5 1 2 5 3 2 1 1 2 3 3 3 1 1 4 3 1 5 7 8 8 8 7 9 9 8
25 24 20 16 13 9 5 5 8 8 3 4 6 2 3 3 2 2 2 2 1 4 7 6 3 4 3 3 2 1 1 1 1 2 1 2 4 5 4 4 6 7 6 5 3 2 2 5 7 4 2 5 7 6 5 5 2 1 1 3 4 4 7 3 1 1 3 2 1 1 2 4 3 2 1 4 5 5 4 6 8 8 8 9 7 8 8 8
25 22 13 10 11 6 3 4 10 11 5 6 4 2 4 3 3 3 2 1 2 2 3 4 2 2 2 2 3 3 1 0 0 1 1 2 3 4 4 4 5 10 10 6 3 3 3 4 7 2 4 7 4 5 2 2 4 3 2 5 3 2 4 3 0 3 3 1 3 1 2 4 2 2 2 3 3 3 4 6 7 7 8 8 7 8 8 9
23 17 8 8 9 4 5 8 13 10 5 5 2 2 3 2 3 3 2 2 2 1 3 1 2 1 2 0 3 2 0 1 1 1 2 2 3 4 4 3 4 10 11 8 3 2 3 2 8 4 4 5 3 4 1 5 1 3 3 3 3 2 0 1 2 0 0 2 3 3 4 3 3 3 2 1 3 5 5 7 8 8 8 7 7 9 9 9
14 7 4 6 6 3 11 13 11 6 5 3 1 2 3 3 4 4 3 2 0 1 1 3 2 2 1 2 2 2 1 2 3 2 2 1 3 4 4 3 4 6 9 9 6 2 3 1 5 5 3 2 3 2 3 4 3 3 2 1 2 3 3 2 2 2 3 2 2 3 4 3 5 4 4 6 8 7 7 8 8 9 9 7 8 9 9 8
6 1 2 8 4 10 16 11 5 5 4 3 3 2 2 3 4 5 5 3 2 1 2 3 1 1 2 2 2 2 1 2 4 3 2 2 3 4 4 5 2 1 5 7 5 3 2 2 3 6 5 2 1 2 6 6 2 2 2 1 1 1 2 2 1 1 3 4 2 1 2 5 5 3 5 7 7 7 7 7 7 8 9 8 7 8 7 7
3 1 3 7 5 14 11 5 3 3 3 2 3 3 2 2 2 5 5 4 4 3 2 3 3 2 2 1 2 2 1 2 3 3 2 3 3 4 5 6 5 3 4 3 3 3 3 3 3 4 4 2 6 6 6 7 5 5 4 4 4 3 3 2 1 2 2 4 4 4 2 6 5 2 3 4 4 6 7 8 8 8 9 7 6 7 7 6
2 2 4 4 8 10 5 4 1 1 3 2 3 3 2 1 2 4 4 2 4 3 1 1 3 3 3 2 3 2 1 1 2 2 3 4 5 5 5 3 6 6 6 4 4 4 3 4 2 4 4 5 10 7 4 6 4 5 3 3 4 4 5 5 5 3 2 3 1 3 1 6 5 1 2 3 5 7 7 8 8 7 7 6 6 7 7 6
2 2 5 1 9 2 6 2 1 2 2 3 3 3 1 1 2 3 3 1 2 2 0 1 3 3 3 4 3 2 2 1 2 3 3 2 4 7 7 2 5 6 5 3 3 2 2 3 2 4 4 5 8 5 1 2 4 4 1 1 4 3 3 5 5 4 4 3 2 3 1 5 4 3 2 2 5 7 6 6 7 7 6 5 6 7 7 7
2 3 4 2 6 2 4 4 1 1 3 3 3 3 3 2 3 3 3 3 2 2 0 2 3 2 2 2 2 2 2 1 1 3 1 1 3 6 7 5 4 6 4 3 4 3 3 2 3 0 4 5 6 6 5 3 2 2 2 1 3 4 6 5 2 3 3 4 4 4 3 6 3 3 3 2 5 6 6 6 7 6 5 5 6 7 8 8
0 2 2 2 3 1 1 4 4 2 2 3 3 5 4 2 4 5 5 4 4 3 1 3 3 1 2 1 0 2 1 2 1 3 1 1 4 4 5 4 5 6 5 4 5 5 4 3 4 4 2 1 1 1 2 2 0 1 0 1 2 4 7 6 3 3 2 4 4 4 5 5 3 2 4 5 6 7 8 8 7 6 6 6 6 8 9 8
1 1 1 2 1 2 0 1 4 3 2 1 2 4 1 2 5 3 6 4 4 4 2 4 3 0 2 1 1 3 2 0 0 1 1 2 4 4 5 3 1 3 6 8 9 6 3 1 3 7 7 6 6 6 5 3 2 1 2 3 3 1 2 4 5 3 4 5 3 5 5 2 2 4 6 6 8 8 8 9 8 7 8 7 7 9 9 8
1 1 2 2 1 0 2 3 1 2 2 2 1 2 2 2 4 2 2 3 3 4 3 2 1 1 2 1 1 2 2 2 2 0 2 4 4 5 5 3 4 5 1 9 8 5 4 1 1 5 3 4 6 6 4 2 3 1 2 4 3 3 2 4 5 3 5 8 2 6 6 5 4 7 8 7 7 8 8 8 9 8 8 7 8 10 10 9
1 1 1 2 1 2 2 3 4 5 4 2 1 2 2 3 3 2 3 3 1 3 3 1 2 5 5 4 3 1 2 3 4 2 1 2 4 5 6 4 3 6 5 2 1 4 5 1 1 3 3 5 2 3 3 3 4 3 4 4 4 4 4 5 4 2 6 6 4 6 7 4 1 4 8 7 8 8 8 8 8 8 9 9 9 10 10 10
1 1 2 1 0 3 4 3 4 4 5 4 2 2 2 4 4 4 3 2 4 3 3 2 5 6 5 5 5 1 1 1 1 3 2 1 2 3 4 4 4 5 6 3 3 3 5 1 1 4 4 8 8 7 4 3 5 4 5 5 4 5 6 6 5 3 5 5 2 2 7 3 3 3 7 6 7 8 8 9 9 9 10 11 10 10 10 10
1 1 1 2 1 2 2 1 3 3 3 3 3 4 3 4 6 4 3 3 2 4 2 3 6 6 4 5 5 3 6 7 4 3 3 1 2 1 0 1 3 5 6 3 2 2 4 1 2 4 5 6 9 9 7 4 6 5 6 6 6 7 7 6 3 3 4 4 3 5 7 3 3 3 6 7 8 8 9 10 9 9 11 11 11 10 10 11
2 2 1 2 1 1 1 1 2 3 1 2 3 4 3 5 6 4 3 6 7 5 3 4 7 5 2 4 4 5 8 7 7 7 7 4 1 1 1 2 3 2 5 3 2 4 4 3 1 5 5 4 6 7 7 6 8 7 6 7 7 6 4 2 2 2 2 3 5 6 3 1 1 5 7 7 8 9 10 11 9 9 10 11 10 10 10 11
2 3 1 2 0 1 0 0 2 3 1 3 4 4 3 5 5 2 1 2 3 5 6 6 4 1 3 3 5 8 8 7 8 8 6 4 0 2 4 3 4 3 0 1 2 3 3 4 2 3 4 2 4 5 6 6 7 4 4 3 3 3 3 1 2 3 1 4 5 2 2 4 6 7 8 8 9 9 10 10 8 9 11 11 10 11 11 11
Wind_Direction
353 355 355 352 349 348 347 351 353 352 353 354 357 359 359 356 349 345 342 340 338 338 339 340 342 342 341 341 339 335 333 332 326 300 255 182 148 144 155 163 157 164 172 163 156 149 135 125 133 132 127 133 351 97 151 195 267 57 68 70 60 64 41 187 173 176 153 118 133 150 98 113 139 328 126 60 59 84 74 54 52 47 48 71 102 121 134 147
357 358 355 352 349 345 346 348 349 348 348 351 355 356 357 355 349 345 341 339 338 337 339 340 341 340 340 341 338 335 333 328 325 285 239 193 156 151 156 162 157 167 170 162 163 155 145 153 149 136 109 104 276 134 137 171 183 108 92 74 170 202 71 143 156 148 127 126 130 135 111 119 154 176 101 87 87 103 93 70 70 79 70 84 110 133 140 145
1 1 356 350 346 344 345 346 345 344 345 348 350 352 355 353 349 344 341 339 337 337 338 340 340 339 340 339 337 336 333 331 348 81 170 174 173 160 155 162 163 169 169 170 173 165 158 160 148 136 104 33 250 169 167 159 180 171 97 67 257 201 101 36 118 123 118 127 126 129 123 120 174 200 75 122 116 109 130 144 131 123 137 140 138 150 154 159
2 2 357 350 345 343 343 344 342 340 341 343 346 350 351 350 348 343 339 338 336 336 337 340 340 339 340 338 337 335 339 352 18 132 126 161 171 160 157 163 167 170 175 181 174 164 135 136 138 134 96 15 283 173 185 187 177 155 125 170 215 166 96 40 110 113 107 118 128 126 103 118 222 306 108 136 115 116 184 194 177 151 155 155 156 162 164 169
1 358 354 349 345 343 343 341 338 337 338 340 342 345 347 348 346 342 339 337 335 336 337 340 339 340 340 338 335 333 357 44 98 124 122 159 165 162 161 161 166 172 179 172 161 135 113 125 127 105 88 180 244 164 198 192 172 101 79 208 186 139 118 176 130 118 114 108 111 112 114 151 30 60 125 138 132 200 205 201 182 151 154 153 153 157 159 162
359 355 351 348 346 343 341 338 336 335 335 337 338 341 345 344 343 340 336 336 335 334 337 339 340 340 340 340 332 337 47 142 305 106 129 161 168 171 161 161 169 173 171 157 147 123 118 122 120 124 138 206 194 210 225 183 159 81 359 310 193 133 132 162 136 125 124 112 119 131 136 102 79 89 183 109 210 258 224 151 144 133 142 143 144 150 156 162
358 356 351 349 347 343 341 337 334 333 332 334 335 338 342 341 341 338 333 335 334 334 338 339 341 341 344 344 333 9 88 241 302 114 193 190 176 171 159 166 174 177 171 155 143 131 131 129 156 156 139 213 197 217 230 144 129 97 39 295 325 101 128 147 138 134 126 123 145 137 103 80 100 141 227 13 329 334 48 115 116 118 128 132 139 149 157 159
359 357 354 353 350 347 343 337 334 332 331 332 332 336 338 339 338 334 331 333 332 334 336 338 342 344 347 353 357 19 334 258 302 309 251 203 177 166 160 168 179 189 188 180 166 154 151 153 190 178 143 226 167 182 194 105 85 95 127 258 49 69 108 115 119 131 124 126 131 106 95 95 150 156 28 325 349 31 80 103 106 118 121 129 145 153 155 154
360 358 357 356 353 351 345 339 336 333 332 331 330 333 335 336 335 330 327 327 331 332 332 337 343 346 349 2 68 19 279 258 308 314 283 185 175 171 171 172 183 191 194 200 186 167 174 182 211 204 183 225 141 165 171 110 51 125 107 95 98 81 93 103 109 125 119 129 121 102 92 122 215 102 9 273 61 66 93 103 114 127 126 138 149 157 160 160
359 358 357 355 354 352 348 343 339 335 334 331 329 331 332 333 330 325 321 322 327 326 329 335 340 350 350 5 81 174 268 296 328 327 340 214 174 176 186 187 186 188 193 202 188 184 193 195 225 216 160 197 132 155 137 124 151 112 96 76 89 86 79 98 109 116 78 101 134 122 111 172 265 24 264 221 120 109 102 106 128 135 143 154 143 155 161 168
359 357 356 354 354 352 351 346 341 339 335 331 330 330 330 329 325 318 314 315 317 318 325 329 341 351 353 41 105 200 265 339 340 351 342 303 221 197 203 198 188 191 201 193 188 201 197 190 221 120 88 347 56 70 72 109 112 104 102 82 60 68 64 64 96 143 81 54 141 120 103 231 332 357 251 199 127 127 125 127 154 151 160 130 103 105 125 173
358 356 355 353 353 353 353 348 343 341 335 333 331 328 328 324 318 309 304 306 306 309 316 327 345 347 1 47 182 226 259 294 271 295 294 286 277 262 244 215 199 204 216 204 167 188 188 107 82 59 301 120 78 97 93 111 108 101 103 96 58 55 59 276 145 202 329 68 174 115 73 333 297 266 257 135 126 131 137 163 187 185 189 134 105 54 314 265
357 356 355 352 353 354 353 348 344 340 336 335 330 327 324 316 312 302 295 296 296 303 311 328 339 341 21 324 239 241 259 263 268 273 269 273 277 274 270 257 248 244 243 243 190 185 268 314 84 29 212 112 96 160 115 106 103 96 93 101 102 55 312 235 188 212 304 168 179 112 39 277 261 254 248 123 133 136 166 204 198 194 191 160 161 184 243 237
356 355 354 352 352 353 352 349 344 341 338 336 332 328 320 312 306 293 284 283 286 299 308 333 341 19 91 259 266 277 276 270 265 263 259 264 275 278 276 269 264 266 261 256 242 236 277 279 117 355 56 109 124 115 88 76 65 97 99 73 116 123 263 229 180 176 206 195 174 82 59 238 262 250 185 135 140 150 205 234 215 209 193 166 180 198 211 191
356 355 354 352 351 352 352 349 345 342 339 337 334 329 319 309 299 287 273 264 271 290 304 8 32 82 61 282 277 277 275 268 259 260 261 262 269 277 277 275 277 292 285 268 263 253 239 220 88 82 64 50 92 90 71 56 16 82 112 296 204 193 262 258 202 186 184 177 157 88 100 239 263 235 171 138 145 160 211 252 248 240 226 183 174 176 246 165
355 355 354 352 351 352 351 348 346 343 341 340 337 331 321 309 299 279 247 237 245 260 320 59 63 92 95 281 281 271 272 269 269 283 281 264 255 255 273 285 293 318 338 293 251 234 213 188 60 109 116 71 94 97 71 53 356 12 112 206 205 192 238 264 227 212 190 127 153 169 208 239 259 233 171 140 153 167 212 249 249 248 251 215 163 106 360 105
355 355 355 353 351 351 350 349 347 344 345 345 340 339 339 334 327 224 190 177 175 158 100 71 49 56 254 270 282 278 290 289 295 313 305 274 255 254 271 297 313 332 349 357 183 185 161 112 88 22 62 75 108 105 79 48 300 298 237 225 226 193 180 178 227 217 181 150 188 196 209 243 263 229 175 152 155 169 214 237 241 239 237 219 166 126 149 215
354 354 356 354 351 351 350 349 347 346 349 350 349 8 41 52 76 110 127 105 100 111 54 360 48 33 273 281 279 278 301 304 308 309 293 277 258 248 253 298 2 344 352 15 105 118 40 16 73 83 33 49 116 109 107 203 214 219 221 229 243 200 185 201 209 189 171 173 196 188 225 253 267 228 182 166 155 173 216 227 237 235 224 215 180 162 178 203
352 354 356 353 352 351 349 349 349 348 352 357 8 74 69 68 81 93 109 78 43 187 254 240 159 171 245 263 266 290 306 303 303 294 266 257 240 221 227 347 31 13 358 348 338 26 91 25 57 115 136 143 166 154 166 198 192 200 216 214 214 208 214 214 207 183 168 168 201 194 214 242 243 211 185 176 160 179 220 226 235 232 220 209 180 179 175 173
351 354 354 353 352 350 349 349 350 352 357 4 26 96 58 34 41 26 348 323 230 222 244 228 199 232 273 263 277 324 320 307 291 266 229 207 176 146 73 20 43 31 336 263 294 342 96 80 224 204 202 170 172 190 186 185 179 181 204 235 231 226 239 211 183 186 163 161 213 203 212 239 232 210 184 171 160 185 216 223 232 223 213 207 182 181 170 158
351 353 353 353 351 350 349 347 349 357 2 11 33 70 77 59 36 315 315 296 248 229 243 239 213 237 259 248 321 14 350 319 306 277 240 197 149 141 319 22 86 316 264 220 263 328 51 285 238 218 208 174 170 191 176 158 179 183 191 225 243 232 240 226 176 176 162 165 217 190 204 243 245 228 182 164 173 195 209 212 224 222 213 203 179 177 167 144
352 351 352 351 351 351 347 346 350 360 4 20 47 77 115 66 323 254 259 302 276 230 227 243 237 253 259 262 280 24 90 314 311 299 248 179 136 168 230 74 133 230 288 58 327 339 348 270 248 212 183 143 151 176 152 154 181 183 186 215 264 238 226 301 120 160 163 176 227 179 195 243 273 268 199 187 195 201 204 208 218 217 214 210 187 175 160 138
352 350 351 350 350 350 346 347 357 4 3 12 61 99 76 348 337 225 176 282 290 253 218 232 232 245 259 273 250 173 133 205 270 297 226 152 138 174 144 114 169 207 353 117 175 232 267 260 248 178 145 115 120 162 138 139 143 146 199 275 286 242 173 308 14 141 155 153 174 165 187 275 304 291 234 211 215 215 209 215 221 213 214 213 181 159 154 149
351 349 350 347 349 350 346 349 18 5 355 352 90 91 355 345 357 137 161 276 291 288 238 211 208 211 219 248 200 163 155 198 192 275 208 146 134 151 147 157 166 188 244 181 164 201 240 239 160 74 121 121 123 298 86 60 344 282 228 243 271 265 151 148 128 126 97 30 118 126 65 313 285 266 253 217 203 220 215 213 223 222 212 176 126 142 152 152
352 349 348 347 349 348 345 349 21 354 345 343 107 1 349 348 355 122 146 13 301 294 287 208 225 218 204 191 173 167 156 215 204 237 215 147 142 130 156 171 138 209 237 170 146 216 254 245 163 331 293 108 88 314 134 135 328 317 248 232 255 267 109 118 124 121 93 337 218 134 83 288 281 256 249 226 189 214 211 201 213 219 208 175 151 154 147 141
351 348 347 347 346 346 350 50 345 343 337 335 20 342 343 345 350 116 123 29 309 287 311 203 253 197 183 159 175 154 96 273 231 213 206 175 159 121 141 197 82 219 208 152 149 215 270 284 113 141 264 24 11 298 218 166 117 327 251 216 221 129 121 135 140 135 144 213 219 162 145 262 300 269 243 226 204 221 217 207 210 207 206 194 175 159 144 146
350 348 346 345 346 348 353 283 328 337 327 300 340 339 339 340 348 132 106 22 324 281 213 261 327 163 174 181 181 134 130 270 258 174 188 186 184 65 125 201 213 221 183 130 231 238 257 327 61 122 112 326 299 274 229 157 125 242 239 160 128 131 144 160 160 156 176 151 147 154 124 125 289 272 240 200 209 243 236 216 209 201 205 193 166 155 151 157
347 346 343 342 344 345 341 313 324 327 261 316 335 337 336 336 344 121 73 38 289 296 149 276 326 171 201 183 184 159 200 254 132 229 235 162 174 51 103 215 191 202 184 135 218 262 244 237 233 218 187 229 243 218 196 147 137 255 233 139 146 155 154 167 162 144 113 97 118 223 155 109 264 282 324 117 209 250 240 214 205 205 202 181 153 151 154 158
344 342 340 338 339 339 333 317 311 293 285 322 336 336 332 333 11 84 68 110 267 323 160 316 94 205 4 82 214 273 325 13 138 267 348 124 165 69 151 211 160 150 30 129 202 253 243 204 198 171 159 213 224 209 182 157 196 254 131 76 38 70 85 108 117 68 45 67 221 214 186 167 264 280 16 93 228 248 238 203 198 206 193 164 151 151 155 156
340 339 336 334 334 333 323 312 300 290 313 325 333 332 335 2 61 71 61 221 295 317 228 34 107 242 77 108 247 302 321 306 312 341 31 93 1 36 136 176 100 111 13 24 235 248 278 266 175 150 183 199 203 214 191 177 204 193 89 67 45 43 47 54 56 68 64 313 258 203 188 176 286 275 212 170 210 221 180 161 193 201 180 160 159 157 160 159
335 335 332 328 325 320 312 307 306 314 315 323 331 337 6 40 65 94 187 246 285 330 9 358 318 61 106 136 217 280 268 291 321 36 47 33 31 37 74 127 64 65 13 358 309 296 323 320 261 240 228 188 156 222 208 148 161 109 88 85 67 9 20 36 359 38 103 260 265 207 179 159 228 260 233 218 253 113 135 174 193 193 183 170 165 162 161 158
331 330 326 321 315 302 285 282 299 305 310 323 334 1 78 43 33 146 249 299 333 328 350 293 308 24 112 168 195 209 188 254 299 122 152 120 103 141 177 190 179 49 352 283 281 329 312 268 277 303 261 179 139 200 299 1 41 113 115 78 81 328 9 46 296 306 211 247 272 187 158 162 239 247 244 264 279 282 189 196 197 194 185 171 164 160 158 152
328 326 322 316 307 294 286 287 290 293 306 321 344 50 80 79 224 219 262 320 360 296 292 251 298 307 189 180 216 207 166 228 261 167 151 116 118 221 251 207 166 145 235 220 201 339 302 298 313 314 282 200 152 158 238 293 34 147 161 132 129 137 91 245 250 259 253 251 296 279 176 201 277 269 258 269 276 276 259 246 208 187 172 163 156 150 150 148
325 324 319 312 302 294 288 282 275 280 303 328 56 66 82 130 239 237 267 285 274 302 311 295 307 324 132 161 239 194 147 240 217 146 144 73 80 251 271 252 167 143 152 165 164 175 204 308 269 209 255 201 168 178 181 179 180 180 167 138 142 156 162 231 225 196 229 232 304 309 194 197 243 242 235 257 292 287 253 199 120 125 134 137 134 140 151 152
324 322 318 309 299 295 286 263 249 250 286 46 66 72 132 199 256 240 239 270 294 317 312 313 6 54 68 287 270 180 169 239 184 126 147 161 175 204 211 216 191 143 126 159 226 183 161 261 252 240 248 166 172 194 157 131 161 246 146 116 169 186 162 193 195 172 175 151 139 229 223 221 217 223 207 46 351 351 114 123 109 112 126 128 134 150 156 154
325 325 320 304 294 294 282 236 201 188 161 77 70 95 188 219 228 161 206 265 305 310 323 341 50 74 21 321 317 300 185 197 132 128 191 202 211 211 209 218 190 166 155 165 211 180 146 263 273 304 290 193 181 183 157 148 177 226 133 176 226 174 127 121 255 88 96 144 235 238 271 299 313 301 49 64 41 46 81 108 114 122 132 134 146 159 157 160
328 328 316 293 302 295 251 196 164 157 120 83 102 189 222 224 193 189 233 302 296 306 17 4 349 55 34 345 316 307 316 17 111 145 220 256 245 206 215 246 189 181 185 176 204 206 162 268 282 262 250 256 210 152 165 214 150 122 217 216 200 93 85 103 197 3 40 219 269 298 272 296 320 293 322 48 79 112 116 115 119 129 139 145 155 158 161 165
327 325 303 297 315 287 190 164 150 138 84 76 115 238 222 221 216 211 252 325 312 350 74 174 271 15 69 79 291 292 156 212 236 177 180 256 270 205 189 232 202 196 196 174 185 233 154 267 288 251 219 290 352 115 281 304 28 126 197 174 122 134 323 72 144 173 248 246 286 310 296 269 210 231 280 241 190 181 159 142 143 152 155 155 158 160 164 162
326 324 318 333 337 169 158 154 144 101 63 102 172 254 214 237 255 238 250 298 295 108 133 220 246 352 31 190 240 271 189 197 195 178 160 183 257 229 185 206 223 210 193 165 166 215 131 145 286 280 234 302 16 107 206 279 333 37 70 53 54 154 171 166 154 160 175 201 262 309 321 277 227 218 203 209 207 185 169 167 169 172 170 166 162 163 166 160
336 360 327 350 29 144 148 142 110 64 83 165 202 226 223 243 268 259 244 231 211 206 220 217 218 310 281 242 253 263 238 186 169 169 190 193 239 254 218 198 194 177 175 166 172 188 126 152 250 290 306 310 307 197 191 197 195 84 97 246 286 119 137 156 103 84 132 152 179 239 302 271 248 208 200 219 207 177 169 170 175 181 179 173 161 158 160 151
6 121 318 349 107 147 138 100 56 92 123 193 212 218 255 239 257 280 259 216 215 237 220 203 217 239 244 285 290 261 224 188 173 168 214 207 214 257 242 200 173 136 124 142 198 200 169 162 206 279 315 266 248 242 195 179 166 145 161 197 187 149 126 139 232 301 98 127 162 162 224 269 260 193 241 250 184 164 167 166 173 179 174 166 151 146 142 130
64 145 326 350 153 152 94 62 48 109 132 195 223 218 259 258 241 282 288 223 213 235 263 221 225 219 206 220 242 241 239 222 182 175 216 210 196 222 244 184 155 151 134 152 208 204 152 125 177 253 248 230 255 259 190 174 150 132 164 189 162 147 134 152 201 223 116 97 133 120 155 268 264 281 288 248 171 158 164 167 170 166 157 145 129 128 123 112
138 212 335 77 170 139 40 92 305 350 180 243 267 226 222 252 248 272 289 274 219 216 304 247 222 209 211 221 219 224 242 212 182 199 219 226 221 227 242 227 156 155 143 160 193 182 141 124 160 271 296 292 291 304 130 161 114 104 277 166 139 158 149 155 180 164 131 150 137 87 296 266 278 339 329 222 163 146 147 151 151 149 136 117 119 123 116 105
175 252 334 169 190 358 40 153 203 307 251 304 321 288 291 246 221 231 239 250 227 178 248 248 225 218 228 210 185 211 216 154 231 261 222 193 246 248 262 264 198 167 167 187 182 175 191 171 136 143 337 342 338 351 360 353 72 119 274 268 145 132 110 114 122 81 104 186 148 116 224 257 293 10 32 82 117 117 119 120 127 137 124 111 119 110 91 84
141 235 314 260 214 21 61 170 149 154 276 327 308 291 303 269 242 219 207 241 237 184 207 258 230 231 276 245 304 267 226 120 247 293 353 245 265 277 287 267 178 176 213 207 159 152 175 175 140 143 163 161 153 274 274 271 233 196 243 47 94 127 130 134 121 83 119 185 149 146 209 259 310 63 88 97 109 110 117 123 122 127 123 115 113 100 92 97
71 170 294 334 13 64 283 203 126 138 249 277 283 291 264 258 288 236 193 231 241 192 215 265 238 255 292 276 347 314 302 25 351 327 308 266 270 282 291 304 108 211 210 164 134 122 126 140 141 142 161 184 189 216 228 176 148 260 2 36 41 58 158 118 110 146 174 153 181 223 197 193 227 168 143 134 133 128 132 135 133 136 131 117 107 109 115 122
111 174 164 126 38 329 296 303 153 170 220 185 235 291 239 259 305 301 214 223 211 196 221 253 210 208 241 188 44 307 304 345 1 9 244 253 261 281 296 326 4 354 134 149 139 116 96 64 164 137 158 221 206 229 257 95 115 158 33 21 15 9 6 91 115 176 148 122 231 254 180 164 203 177 160 155 145 142 144 143 145 149 139 122 114 117 122 120
161 242 190 140 184 192 215 256 214 208 232 214 226 285 281 283 288 269 273 294 289 206 198 242 263 237 221 171 138 289 337 3 345 303 271 287 289 316 342 355 2 13 36 109 127 108 112 108 180 118 21 344 353 295 286 99 102 82 60 28 354 22 61 97 110 120 114 123 240 238 164 155 251 157 159 164 153 149 146 141 146 144 130 123 122 120 120 117
142 271 284 345 218 192 204 222 179 195 223 203 201 247 233 251 251 231 238 310 327 276 194 224 269 246 214 174 142 140 215 134 322 286 250 288 306 337 10 352 322 8 43 35 357 88 112 43 360 94 43 7 11 354 329 102 98 53 41 31 21 57 82 98 111 105 92 98 249 174 120 77 346 157 156 148 141 141 140 143 145 137 128 126 126 124 123 119
122 250 283 18 3 226 241 268 146 169 214 188 207 243 219 220 241 254 228 182 249 285 195 200 251 245 210 173 141 186 216 177 175 243 195 141 332 308 139 243 285 342 19 36 346 50 96 63 342 81 61 357 359 10 4 46 94 78 40 29 37 52 57 57 55 48 63 67 49 84 92 38 332 140 127 121 128 134 143 150 145 133 130 128 126 126 125 122
266 271 262 85 25 260 251 275 137 132 151 178 200 233 230 217 226 253 253 201 198 226 220 229 261 260 169 128 142 229 237 190 190 222 203 178 229 268 254 205 187 321 350 11 360 14 74 107 10 66 73 334 344 19 7 20 70 69 29 13 19 35 49 28 4 19 105 122 87 76 94 236 187 123 116 124 136 141 149 151 140 134 135 132 132 133 129 127
315 290 271 122 119 296 189 337 65 101 167 214 211 227 240 248 253 242 262 253 226 240 252 252 249 157 94 117 188 226 234 204 211 234 214 183 275 308 277 249 173 152 218 112 58 27 91 118 120 86 95 279 319 7 2 20 54 39 325 332 359 40 89 98 5 20 61 130 122 126 221 195 153 137 132 140 149 153 155 151 141 142 143 138 137 137 134 134